{"data":{"norad_id":64843,"intl_designator":"2025-152B","name":"STARLINK-34725","alt_names":[],"object_type":"PAYLOAD","status":"ACTIVE","operator":null,"country":"US","launch_date":"2025-07-19","launch_site_code":"AFWTR","launch_vehicle":null,"mission":null,"orbit_class":"UNKNOWN","rcs_meters":null,"size_class":null,"mass_kg":null,"dimensions":null,"purposes":["comms"],"wikipedia_slug":null,"has_3d_model":false,"image_url":null,"decayed_at":null,"tle_current":{"epoch":"2026-09-20T12:34:31.520352Z","epoch_age_seconds":122237,"freshness":"FRESH","line1":"1 64843U 25152B   26263.52397593  .00016504  00000+0  51236-3 0  9997","line2":"2 64843  97.2853 114.0256 0002057  72.9634 287.1834 15.33446937 64823","mean_motion":15.33446937,"eccentricity":0.0002057,"inclination_deg":97.2853,"raan_deg":114.0256,"arg_perigee_deg":72.9634,"mean_anomaly_deg":287.1834,"bstar":0.00051236,"rev_number":6482,"period_min":93.906086037589,"perigee_km":464.12966750858,"apogee_km":466.9451551614,"semimajor_km":6843.674411335,"source":"CELESTRAK","updated_at":"2026-09-21T09:00:35.448320Z"}}}